SBI5127 UNNT-URMM

Flight info

Callsign SBI5127
Flight time 4h 25m
Altitude 32000
Route LUNIM B808 DAKIN N55 OGANU P574 NOGBU N37 IPLED DCT GOTIK DCT MEMZA A962 OKARU
Aircraft A321/M-SDFGJ1IYRW/LB1

Departure

Time 2026-05-07 07:23
Airport Novosibirsk Tolmachevo Airport (UNNT)

Arrival

Time 2026-05-07 11:48
Airport Mineralnye Vody Airport (URMM)
Time Latitude Longitude Altitude Speed Heading
2026-05-07 06:13 55.00959 82.66473 373 ft 0 kts 171°
2026-05-07 07:12 55.00969 82.66471 373 ft 2 kts 163°
2026-05-07 07:12 55.00985 82.66462 373 ft 2 kts 156°
2026-05-07 07:12 55.00999 82.66449 373 ft 2 kts 142°
2026-05-07 07:12 55.01011 82.66429 373 ft 2 kts 120°
2026-05-07 07:13 55.01018 82.66403 373 ft 2 kts 97°
2026-05-07 07:13 55.01018 82.66374 373 ft 2 kts 78°
2026-05-07 07:13 55.01016 82.66357 373 ft 1 kts 69°
2026-05-07 07:13 55.01016 82.66355 373 ft 0 kts 68°
2026-05-07 07:15 55.01017 82.66359 373 ft 1 kts 68°
2026-05-07 07:16 55.01024 82.66392 373 ft 5 kts 70°
2026-05-07 07:16 55.01039 82.66463 373 ft 8 kts 68°
2026-05-07 07:16 55.01064 82.66565 373 ft 10 kts 68°
2026-05-07 07:16 55.01086 82.66661 373 ft 7 kts 68°
2026-05-07 07:17 55.01096 82.66729 373 ft 5 kts 81°
2026-05-07 07:17 55.01098 82.66798 373 ft 6 kts 89°
2026-05-07 07:17 55.01094 82.66855 373 ft 4 kts 109°
2026-05-07 07:17 55.01080 82.66898 373 ft 5 kts 118°
2026-05-07 07:18 55.01080 82.66960 373 ft 6 kts 81°
2026-05-07 07:18 55.01087 82.67042 373 ft 8 kts 81°
2026-05-07 07:18 55.01096 82.67145 373 ft 10 kts 81°
2026-05-07 07:18 55.01106 82.67250 373 ft 6 kts 82°
2026-05-07 07:19 55.01108 82.67313 373 ft 5 kts 89°
2026-05-07 07:19 55.01108 82.67373 373 ft 6 kts 90°
2026-05-07 07:19 55.01118 82.67450 373 ft 7 kts 60°
2026-05-07 07:19 55.01166 82.67508 373 ft 9 kts 31°
2026-05-07 07:20 55.01229 82.67573 373 ft 12 kts 31°
2026-05-07 07:20 55.01299 82.67646 373 ft 11 kts 31°
2026-05-07 07:20 55.01368 82.67719 372 ft 12 kts 31°
2026-05-07 07:20 55.01424 82.67776 372 ft 7 kts 28°
2026-05-07 07:21 55.01468 82.67779 371 ft 6 kts 345°
2026-05-07 07:21 55.01486 82.67746 371 ft 3 kts 284°
2026-05-07 07:21 55.01485 82.67720 371 ft 1 kts 263°
2026-05-07 07:22 55.01477 82.67627 371 ft 33 kts 261°
2026-05-07 07:22 55.01402 82.66818 375 ft 99 kts 261°
2026-05-07 07:22 55.01265 82.65303 373 ft 151 kts 261°
2026-05-07 07:22 55.01076 82.63264 465 ft 183 kts 259°
2026-05-07 07:23 55.00873 82.61070 1084 ft 185 kts 260°
2026-05-07 07:23 55.00672 82.58857 1751 ft 184 kts 261°
2026-05-07 07:23 55.00474 82.56658 2288 ft 183 kts 261°
2026-05-07 07:23 55.00283 82.54465 2832 ft 183 kts 264°
2026-05-07 07:24 55.00510 82.52316 3303 ft 183 kts 294°
2026-05-07 07:24 55.01053 82.50285 3640 ft 191 kts 294°
2026-05-07 07:24 55.01625 82.48070 3791 ft 209 kts 293°
2026-05-07 07:24 55.02243 82.45660 3911 ft 228 kts 293°
2026-05-07 07:25 55.03613 82.40291 4868 ft 247 kts 293°
2026-05-07 07:25 55.04205 82.37438 5324 ft 258 kts 278°
2026-05-07 07:25 55.04200 82.34274 5800 ft 265 kts 265°
2026-05-07 07:26 55.04049 82.31050 6435 ft 268 kts 265°
2026-05-07 07:26 55.03890 82.27785 7024 ft 272 kts 265°
2026-05-07 07:26 55.03727 82.24489 7622 ft 274 kts 265°
2026-05-07 07:26 55.03559 82.21165 8219 ft 276 kts 265°
2026-05-07 07:27 55.03391 82.17815 8814 ft 279 kts 265°
2026-05-07 07:27 55.03219 82.14435 9411 ft 281 kts 265°
2026-05-07 07:27 55.03043 82.11029 9988 ft 283 kts 266°
2026-05-07 07:27 55.02862 82.07574 10339 ft 294 kts 265°
2026-05-07 07:28 55.02671 82.03920 10460 ft 311 kts 265°
2026-05-07 07:28 55.02538 82.01387 10541 ft 323 kts 265°
2026-05-07 07:28 55.02333 81.97396 10665 ft 338 kts 266°
2026-05-07 07:28 55.02143 81.93210 10793 ft 353 kts 266°
2026-05-07 07:29 55.01969 81.88888 11137 ft 360 kts 266°
2026-05-07 07:29 55.01800 81.84522 11615 ft 363 kts 266°
2026-05-07 07:29 55.01627 81.80120 12115 ft 365 kts 266°
2026-05-07 07:29 55.01448 81.75699 12615 ft 367 kts 266°
2026-05-07 07:30 55.01262 81.71252 13111 ft 369 kts 266°
2026-05-07 07:30 55.01071 81.66785 13593 ft 371 kts 266°
2026-05-07 07:30 55.00874 81.62296 14047 ft 373 kts 266°
2026-05-07 07:30 55.00674 81.57783 14455 ft 375 kts 266°
2026-05-07 07:31 55.00471 81.53245 14863 ft 377 kts 266°
2026-05-07 07:31 55.00265 81.48679 15259 ft 379 kts 266°
2026-05-07 07:31 55.00058 81.44101 15646 ft 381 kts 266°
2026-05-07 07:31 54.99848 81.39488 16017 ft 383 kts 266°
2026-05-07 07:32 54.99636 81.34861 16384 ft 385 kts 266°
2026-05-07 07:32 54.99420 81.30211 16721 ft 387 kts 265°
2026-05-07 07:32 54.99203 81.25534 17067 ft 388 kts 265°
2026-05-07 07:32 54.98985 81.20835 17408 ft 390 kts 265°
2026-05-07 07:33 54.98761 81.16109 17744 ft 392 kts 265°
2026-05-07 07:33 54.98535 81.11374 18076 ft 394 kts 265°
2026-05-07 07:33 54.98305 81.06605 18399 ft 396 kts 265°
2026-05-07 07:33 54.98070 81.01824 18691 ft 397 kts 265°
2026-05-07 07:34 54.97831 80.97015 19002 ft 399 kts 265°
2026-05-07 07:34 54.97585 80.92206 19308 ft 400 kts 264°
2026-05-07 07:34 54.97312 80.87385 19618 ft 401 kts 264°
2026-05-07 07:34 54.97020 80.82545 19936 ft 403 kts 264°
2026-05-07 07:35 54.96717 80.77683 20246 ft 404 kts 264°
2026-05-07 07:35 54.96411 80.72816 20576 ft 406 kts 264°
2026-05-07 07:35 54.96108 80.67931 20880 ft 407 kts 264°
2026-05-07 07:35 54.95803 80.63022 21203 ft 408 kts 264°
2026-05-07 07:36 54.95493 80.58100 21525 ft 410 kts 264°
2026-05-07 07:36 54.95183 80.53161 21840 ft 411 kts 264°
2026-05-07 07:36 54.94872 80.48199 22153 ft 413 kts 264°
2026-05-07 07:36 54.94560 80.43229 22475 ft 415 kts 264°
2026-05-07 07:37 54.94244 80.38240 22785 ft 416 kts 264°
2026-05-07 07:37 54.93924 80.33232 23095 ft 418 kts 263°
2026-05-07 07:37 54.93598 80.28207 23393 ft 419 kts 263°
2026-05-07 07:37 54.93267 80.23159 23683 ft 420 kts 263°
2026-05-07 07:38 54.92935 80.18167 23956 ft 421 kts 264°
2026-05-07 07:38 54.92601 80.13111 24227 ft 422 kts 264°
2026-05-07 07:38 54.92261 80.07977 24511 ft 422 kts 264°
2026-05-07 07:38 54.91929 80.02973 24786 ft 422 kts 264°
2026-05-07 07:39 54.91590 79.97899 25060 ft 423 kts 264°
2026-05-07 07:39 54.91243 79.92763 25333 ft 423 kts 264°
2026-05-07 07:39 54.90896 79.87686 25601 ft 423 kts 264°
2026-05-07 07:39 54.90545 79.82610 25862 ft 424 kts 264°
2026-05-07 07:40 54.90190 79.77526 26113 ft 424 kts 264°
2026-05-07 07:40 54.89841 79.72508 26349 ft 424 kts 264°
2026-05-07 07:40 54.89483 79.67357 26584 ft 424 kts 264°
2026-05-07 07:40 54.89134 79.62330 26800 ft 424 kts 264°
2026-05-07 07:41 54.88776 79.57245 27004 ft 425 kts 264°
2026-05-07 07:41 54.88412 79.52151 27196 ft 425 kts 264°
2026-05-07 07:41 54.88049 79.47064 27412 ft 425 kts 264°
2026-05-07 07:41 54.87684 79.41982 27692 ft 423 kts 264°
2026-05-07 07:42 54.87317 79.36934 27962 ft 421 kts 264°
2026-05-07 07:42 54.86949 79.31897 28228 ft 419 kts 264°
2026-05-07 07:42 54.86581 79.26887 28491 ft 418 kts 264°
2026-05-07 07:42 54.86213 79.21899 28750 ft 416 kts 264°
2026-05-07 07:43 54.85844 79.16915 29000 ft 415 kts 264°
2026-05-07 07:43 54.85475 79.11962 29250 ft 413 kts 264°
2026-05-07 07:43 54.85105 79.07020 29490 ft 412 kts 264°
2026-05-07 07:43 54.84737 79.02091 29721 ft 411 kts 264°
2026-05-07 07:44 54.84366 78.97181 29947 ft 410 kts 264°
2026-05-07 07:44 54.83996 78.92279 30153 ft 409 kts 264°
2026-05-07 07:44 54.83620 78.87394 30325 ft 409 kts 264°
2026-05-07 07:44 54.83239 78.82498 30498 ft 409 kts 264°
2026-05-07 07:45 54.82857 78.77626 30661 ft 408 kts 264°
2026-05-07 07:45 54.82474 78.72744 30827 ft 408 kts 264°
2026-05-07 07:45 54.82089 78.67866 30987 ft 408 kts 264°
2026-05-07 07:45 54.81702 78.62995 31146 ft 408 kts 264°
2026-05-07 07:46 54.81314 78.58115 31314 ft 408 kts 264°
2026-05-07 07:46 54.80927 78.53239 31478 ft 408 kts 264°
2026-05-07 07:46 54.80542 78.48376 31643 ft 408 kts 264°
2026-05-07 07:46 54.80154 78.43503 31813 ft 408 kts 264°
2026-05-07 07:47 54.79764 78.38639 31980 ft 407 kts 264°
2026-05-07 07:47 54.79371 78.33781 32138 ft 407 kts 264°
2026-05-07 07:47 54.78973 78.28914 32312 ft 407 kts 264°
2026-05-07 07:47 54.78575 78.24058 32479 ft 407 kts 264°
2026-05-07 07:48 54.78177 78.19212 32653 ft 407 kts 264°
2026-05-07 07:48 54.77775 78.14368 32816 ft 406 kts 264°
2026-05-07 07:48 54.77367 78.09528 32975 ft 406 kts 264°
2026-05-07 07:48 54.76959 78.04691 33145 ft 406 kts 264°
2026-05-07 07:49 54.76554 77.99857 33303 ft 406 kts 264°
2026-05-07 07:49 54.76149 77.95027 33460 ft 405 kts 264°
2026-05-07 07:49 54.75740 77.90193 33612 ft 405 kts 264°
2026-05-07 07:49 54.75330 77.85371 33765 ft 405 kts 264°
2026-05-07 07:50 54.74915 77.80545 33933 ft 404 kts 264°
2026-05-07 07:50 54.74082 77.70906 34046 ft 405 kts 264°
2026-05-07 07:51 54.73235 77.61259 34041 ft 405 kts 264°
2026-05-07 07:51 54.72382 77.51617 34043 ft 405 kts 264°
2026-05-07 07:52 54.71527 77.41979 34039 ft 405 kts 263°
2026-05-07 07:52 54.70665 77.32347 34036 ft 405 kts 263°
2026-05-07 07:53 54.69798 77.22717 34037 ft 406 kts 263°
2026-05-07 07:53 54.68924 77.13087 34040 ft 406 kts 263°
2026-05-07 07:54 54.68041 77.03453 34040 ft 405 kts 263°
2026-05-07 07:54 54.67141 76.93839 34039 ft 405 kts 263°
2026-05-07 07:55 54.66237 76.84231 34039 ft 405 kts 263°
2026-05-07 07:55 54.65332 76.74627 34040 ft 405 kts 263°
2026-05-07 07:56 54.64413 76.65034 34041 ft 405 kts 262°
2026-05-07 07:56 54.63483 76.55455 34039 ft 405 kts 262°
2026-05-07 07:57 54.62556 76.45881 34032 ft 404 kts 262°
2026-05-07 07:57 54.61622 76.36308 34036 ft 404 kts 262°
2026-05-07 07:58 54.60677 76.26755 34032 ft 404 kts 262°
2026-05-07 07:58 54.59735 76.17262 34035 ft 404 kts 262°
2026-05-07 07:59 54.58772 76.07718 34041 ft 404 kts 262°
2026-05-07 07:59 54.57803 75.98170 34035 ft 404 kts 262°
2026-05-07 08:00 54.56834 75.88640 34036 ft 404 kts 261°
2026-05-07 08:00 54.55852 75.79118 34045 ft 403 kts 261°
2026-05-07 08:01 54.54871 75.69602 34043 ft 403 kts 261°
2026-05-07 08:01 54.53877 75.60116 34046 ft 403 kts 261°
2026-05-07 08:02 54.52881 75.50688 34045 ft 402 kts 261°
2026-05-07 08:02 54.51873 75.41210 34046 ft 402 kts 261°
2026-05-07 08:03 54.50862 75.31755 34035 ft 402 kts 261°
2026-05-07 08:03 54.49844 75.22297 34036 ft 402 kts 260°
2026-05-07 08:04 54.48825 75.12846 34038 ft 402 kts 260°
2026-05-07 08:04 54.47792 75.03407 34032 ft 402 kts 260°
2026-05-07 08:05 54.46741 74.93963 34024 ft 402 kts 259°
2026-05-07 08:05 54.45694 74.84530 34027 ft 402 kts 260°
2026-05-07 08:06 54.44655 74.75159 34037 ft 402 kts 259°
2026-05-07 08:06 54.43596 74.65731 34040 ft 402 kts 259°
2026-05-07 08:07 54.42528 74.56301 34028 ft 402 kts 259°
2026-05-07 08:07 54.41447 74.46875 34028 ft 402 kts 259°
2026-05-07 08:08 54.40352 74.37452 34032 ft 402 kts 259°
2026-05-07 08:08 54.39260 74.28036 34032 ft 402 kts 259°
2026-05-07 08:09 54.38169 74.18633 34038 ft 402 kts 259°
2026-05-07 08:09 54.37063 74.09231 34031 ft 402 kts 258°
2026-05-07 08:10 54.35954 73.99906 34031 ft 402 kts 258°
2026-05-07 08:10 54.34824 73.90519 34028 ft 402 kts 258°
2026-05-07 08:11 54.33696 73.81128 34013 ft 402 kts 258°
2026-05-07 08:11 54.32562 73.71752 34007 ft 402 kts 258°
2026-05-07 08:12 54.31421 73.62377 34009 ft 403 kts 258°
2026-05-07 08:12 54.30268 73.52989 34009 ft 403 kts 257°
2026-05-07 08:13 54.29107 73.43598 34007 ft 403 kts 257°
2026-05-07 08:13 54.27934 73.34202 34011 ft 404 kts 257°
2026-05-07 08:14 54.26757 73.24810 34004 ft 404 kts 257°
2026-05-07 08:14 54.25572 73.15410 34010 ft 404 kts 257°
2026-05-07 08:15 54.24381 73.06022 34006 ft 404 kts 257°
2026-05-07 08:15 54.23179 72.96628 34006 ft 405 kts 257°
2026-05-07 08:16 54.22171 72.88826 34012 ft 405 kts 256°
2026-05-07 08:16 54.20956 72.79420 34013 ft 405 kts 256°
2026-05-07 08:17 54.19734 72.70015 34016 ft 406 kts 256°
2026-05-07 08:17 54.18504 72.60612 34016 ft 406 kts 256°
2026-05-07 08:18 54.17262 72.51222 34022 ft 406 kts 256°
2026-05-07 08:18 54.15895 72.41897 34022 ft 404 kts 249°
2026-05-07 08:19 54.13242 72.33482 34012 ft 404 kts 238°
2026-05-07 08:19 54.10246 72.25383 34012 ft 404 kts 238°
2026-05-07 08:20 54.07257 72.17288 34010 ft 404 kts 238°
2026-05-07 08:20 54.04264 72.09209 34012 ft 404 kts 238°
2026-05-07 08:21 54.01257 72.01143 34004 ft 403 kts 238°
2026-05-07 08:21 53.98250 71.93101 34003 ft 403 kts 238°
2026-05-07 08:22 53.95244 71.85070 33996 ft 403 kts 238°
2026-05-07 08:22 53.92231 71.77050 33994 ft 403 kts 238°
2026-05-07 08:23 53.89214 71.69053 33989 ft 403 kts 238°
2026-05-07 08:23 53.86186 71.61070 33995 ft 403 kts 238°
2026-05-07 08:24 53.83154 71.53090 33993 ft 403 kts 238°
2026-05-07 08:24 53.80120 71.45134 33996 ft 403 kts 238°
2026-05-07 08:25 53.77095 71.37226 33997 ft 403 kts 238°
2026-05-07 08:25 53.74048 71.29279 33994 ft 403 kts 238°
2026-05-07 08:26 53.69476 71.17399 33994 ft 402 kts 237°
2026-05-07 08:26 53.66424 71.09502 33994 ft 402 kts 237°
2026-05-07 08:27 53.63368 71.01627 33991 ft 402 kts 237°
2026-05-07 08:27 53.60305 70.93763 33986 ft 401 kts 237°
2026-05-07 08:28 53.57238 70.85906 33987 ft 401 kts 237°
2026-05-07 08:28 53.54172 70.78064 33987 ft 401 kts 237°
2026-05-07 08:29 53.51098 70.70230 33987 ft 401 kts 237°
2026-05-07 08:29 53.48023 70.62418 33995 ft 401 kts 237°
2026-05-07 08:30 53.44940 70.54620 33982 ft 401 kts 237°
2026-05-07 08:30 53.41857 70.46841 33982 ft 401 kts 237°
2026-05-07 08:31 53.38764 70.39066 33987 ft 401 kts 237°
2026-05-07 08:31 53.35674 70.31313 33990 ft 401 kts 236°
2026-05-07 08:32 53.32572 70.23557 33985 ft 401 kts 236°
2026-05-07 08:32 53.29467 70.15818 33989 ft 401 kts 236°
2026-05-07 08:33 53.26359 70.08096 33993 ft 401 kts 236°
2026-05-07 08:33 53.23244 70.00379 33993 ft 401 kts 236°
2026-05-07 08:34 53.20120 69.92676 33998 ft 401 kts 236°
2026-05-07 08:34 53.16995 69.84982 33997 ft 401 kts 236°
2026-05-07 08:35 53.13863 69.77305 34000 ft 401 kts 236°
2026-05-07 08:35 53.10726 69.69632 33996 ft 401 kts 236°
2026-05-07 08:36 53.07587 69.61968 33994 ft 401 kts 236°
2026-05-07 08:36 53.04441 69.54307 33996 ft 401 kts 236°
2026-05-07 08:37 53.01286 69.46663 33995 ft 401 kts 235°
2026-05-07 08:37 52.98147 69.39078 33986 ft 401 kts 235°
2026-05-07 08:38 52.94984 69.31440 33989 ft 402 kts 235°
2026-05-07 08:38 52.91810 69.23806 33984 ft 402 kts 235°
2026-05-07 08:39 52.88614 69.16143 33981 ft 402 kts 235°
2026-05-07 08:39 52.85444 69.08577 33981 ft 402 kts 235°
2026-05-07 08:40 52.82228 69.00925 33976 ft 403 kts 235°
2026-05-07 08:40 52.79044 68.93373 33980 ft 403 kts 235°
2026-05-07 08:41 52.75839 68.85772 33980 ft 403 kts 234°
2026-05-07 08:41 52.72623 68.78188 33974 ft 404 kts 234°
2026-05-07 08:42 52.69398 68.70602 33972 ft 404 kts 234°
2026-05-07 08:42 52.66167 68.63019 33977 ft 405 kts 234°
2026-05-07 08:43 52.62927 68.55434 33976 ft 405 kts 234°
2026-05-07 08:43 52.59678 68.47853 33971 ft 406 kts 234°
2026-05-07 08:44 52.56424 68.40275 33970 ft 406 kts 234°
2026-05-07 08:44 52.53158 68.32697 33981 ft 406 kts 234°
2026-05-07 08:45 52.49881 68.25128 33975 ft 407 kts 234°
2026-05-07 08:45 52.46600 68.17568 33968 ft 407 kts 234°
2026-05-07 08:46 52.43313 68.10019 33979 ft 407 kts 234°
2026-05-07 08:46 52.40019 68.02481 33976 ft 407 kts 234°
2026-05-07 08:47 52.36726 67.94955 33977 ft 407 kts 234°
2026-05-07 08:47 52.33427 67.87444 33973 ft 407 kts 234°
2026-05-07 08:48 52.30124 67.79937 33972 ft 407 kts 234°
2026-05-07 08:48 52.26821 67.72442 33963 ft 407 kts 234°
2026-05-07 08:49 52.23507 67.64950 33959 ft 407 kts 233°
2026-05-07 08:49 52.20181 67.57470 33974 ft 407 kts 233°
2026-05-07 08:50 52.16897 67.49944 33965 ft 408 kts 234°
2026-05-07 08:50 52.13684 67.42323 33970 ft 409 kts 235°
2026-05-07 08:51 52.10462 67.34682 33964 ft 409 kts 234°
2026-05-07 08:51 52.07214 67.27068 33971 ft 410 kts 234°
2026-05-07 08:52 52.03944 67.19455 33973 ft 411 kts 234°
2026-05-07 08:52 52.00681 67.11888 33955 ft 412 kts 234°
2026-05-07 08:53 51.97370 67.04231 33959 ft 412 kts 234°
2026-05-07 08:53 51.94072 66.96621 33966 ft 412 kts 234°
2026-05-07 08:54 51.90771 66.89021 33961 ft 413 kts 234°
2026-05-07 08:54 51.87455 66.81412 33960 ft 414 kts 234°
2026-05-07 08:55 51.84154 66.73860 33962 ft 414 kts 234°
2026-05-07 08:55 51.80826 66.66257 33962 ft 415 kts 234°
2026-05-07 08:56 51.77489 66.58647 33959 ft 415 kts 234°
2026-05-07 08:56 51.74114 66.51013 33956 ft 415 kts 234°
2026-05-07 08:57 51.70775 66.43476 33969 ft 416 kts 234°
2026-05-07 08:57 51.67413 66.35880 33967 ft 416 kts 234°
2026-05-07 08:58 51.64043 66.28292 33957 ft 417 kts 234°
2026-05-07 08:58 51.60667 66.20717 33969 ft 417 kts 234°
2026-05-07 08:59 51.57280 66.13148 33961 ft 417 kts 234°
2026-05-07 08:59 51.53885 66.05591 33978 ft 417 kts 234°
2026-05-07 09:00 51.50480 65.98052 33974 ft 417 kts 234°
2026-05-07 09:00 51.47079 65.90508 33979 ft 417 kts 234°
2026-05-07 09:01 51.44254 65.84240 33978 ft 417 kts 234°
2026-05-07 09:01 51.40850 65.76728 33981 ft 417 kts 234°
2026-05-07 09:02 51.37429 65.69233 33978 ft 417 kts 234°
2026-05-07 09:02 51.34009 65.61751 33974 ft 416 kts 234°
2026-05-07 09:03 51.30594 65.54276 33968 ft 416 kts 234°
2026-05-07 09:03 51.27177 65.46815 33971 ft 416 kts 234°
2026-05-07 09:04 51.23750 65.39381 33965 ft 416 kts 234°
2026-05-07 09:04 51.20320 65.31945 33969 ft 416 kts 234°
2026-05-07 09:05 51.16912 65.24575 33966 ft 416 kts 234°
2026-05-07 09:05 51.13475 65.17181 33971 ft 415 kts 234°
2026-05-07 09:06 51.10028 65.09801 33973 ft 415 kts 234°
2026-05-07 09:06 51.06588 65.02434 33971 ft 415 kts 234°
2026-05-07 09:07 51.03149 64.95083 33970 ft 414 kts 234°
2026-05-07 09:07 50.99715 64.87746 33969 ft 414 kts 234°
2026-05-07 09:08 50.96271 64.80428 33967 ft 414 kts 234°
2026-05-07 09:08 50.92819 64.73124 33967 ft 414 kts 233°
2026-05-07 09:09 50.89363 64.65834 33963 ft 413 kts 233°
2026-05-07 09:09 50.85909 64.58552 33960 ft 413 kts 233°
2026-05-07 09:10 50.82448 64.51288 33960 ft 414 kts 233°
2026-05-07 09:10 50.78969 64.44040 33961 ft 414 kts 233°
2026-05-07 09:11 50.75493 64.36799 33960 ft 414 kts 233°
2026-05-07 09:11 50.72027 64.29550 33953 ft 414 kts 233°
2026-05-07 09:12 50.68555 64.22318 33952 ft 414 kts 233°
2026-05-07 09:12 50.65074 64.15095 33952 ft 414 kts 233°
2026-05-07 09:13 50.61590 64.07883 33951 ft 414 kts 232°
2026-05-07 09:13 50.58096 64.00692 33951 ft 414 kts 232°
2026-05-07 09:14 50.54600 63.93501 33950 ft 414 kts 232°
2026-05-07 09:14 50.51102 63.86327 33950 ft 413 kts 232°
2026-05-07 09:15 50.47604 63.79165 33954 ft 413 kts 232°
2026-05-07 09:15 50.44103 63.72012 33953 ft 413 kts 232°
2026-05-07 09:16 50.40604 63.64895 33948 ft 412 kts 232°
2026-05-07 09:16 50.37100 63.57796 33947 ft 411 kts 231°
2026-05-07 09:17 50.33601 63.50725 33949 ft 410 kts 232°
2026-05-07 09:17 50.30113 63.43667 33942 ft 410 kts 231°
2026-05-07 09:18 50.26621 63.36635 33942 ft 409 kts 231°
2026-05-07 09:18 50.23130 63.29633 33942 ft 408 kts 231°
2026-05-07 09:19 50.19636 63.22644 33940 ft 408 kts 231°
2026-05-07 09:19 50.16169 63.15730 33931 ft 407 kts 231°
2026-05-07 09:20 50.12679 63.08783 33932 ft 406 kts 231°
2026-05-07 09:20 50.09193 63.01865 33933 ft 406 kts 231°
2026-05-07 09:21 50.05702 62.94962 33926 ft 405 kts 230°
2026-05-07 09:21 50.01724 62.88790 33926 ft 404 kts 222°
2026-05-07 09:22 49.97583 62.82881 33921 ft 403 kts 222°
2026-05-07 09:22 49.93435 62.76980 33920 ft 403 kts 222°
2026-05-07 09:23 49.89317 62.71117 33915 ft 403 kts 222°
2026-05-07 09:23 49.85198 62.65277 33904 ft 403 kts 222°
2026-05-07 09:24 49.81050 62.59412 33905 ft 403 kts 222°
2026-05-07 09:24 49.76885 62.53544 33907 ft 404 kts 222°
2026-05-07 09:25 49.73142 62.47116 33892 ft 405 kts 230°
2026-05-07 09:25 49.69619 62.40303 33902 ft 406 kts 230°
2026-05-07 09:26 49.66109 62.33526 33894 ft 406 kts 230°
2026-05-07 09:26 49.62565 62.26712 33915 ft 406 kts 230°
2026-05-07 09:27 49.59019 62.19938 33925 ft 406 kts 230°
2026-05-07 09:28 49.53716 62.09813 33908 ft 406 kts 230°
2026-05-07 09:28 49.50166 62.03062 33915 ft 405 kts 230°
2026-05-07 09:29 49.46605 61.96300 33919 ft 405 kts 230°
2026-05-07 09:29 49.43055 61.89568 33916 ft 405 kts 230°
2026-05-07 09:30 49.39509 61.82867 33911 ft 406 kts 230°
2026-05-07 09:30 49.35921 61.76133 33912 ft 406 kts 229°
2026-05-07 09:31 49.32364 61.69456 33918 ft 406 kts 229°
2026-05-07 09:31 49.28778 61.62725 33918 ft 406 kts 229°
2026-05-07 09:32 49.25221 61.56056 34072 ft 408 kts 229°
2026-05-07 09:32 49.23400 61.52657 34219 ft 408 kts 229°
2026-05-07 09:32 49.21598 61.49306 34370 ft 408 kts 229°
2026-05-07 09:32 49.19791 61.45959 34502 ft 408 kts 229°
2026-05-07 09:33 49.17986 61.42617 34637 ft 408 kts 229°
2026-05-07 09:33 49.16182 61.39278 34776 ft 408 kts 229°
2026-05-07 09:33 49.14401 61.35977 34894 ft 408 kts 229°
2026-05-07 09:33 49.12575 61.32585 35032 ft 408 kts 229°
2026-05-07 09:34 49.10775 61.29242 35152 ft 408 kts 229°
2026-05-07 09:34 49.08974 61.25906 35271 ft 408 kts 229°
2026-05-07 09:34 49.07190 61.22615 35394 ft 408 kts 229°
2026-05-07 09:34 49.05377 61.19284 35517 ft 408 kts 229°
2026-05-07 09:35 49.03569 61.15965 35639 ft 408 kts 229°
2026-05-07 09:35 49.01755 61.12636 35782 ft 407 kts 229°
2026-05-07 09:35 48.99952 61.09324 35890 ft 407 kts 229°
2026-05-07 09:36 48.96315 61.02671 35912 ft 409 kts 229°
2026-05-07 09:36 48.92678 60.96006 35911 ft 409 kts 229°
2026-05-07 09:37 48.89031 60.89344 35907 ft 409 kts 229°
2026-05-07 09:37 48.85407 60.82761 35906 ft 409 kts 229°
2026-05-07 09:38 48.81751 60.76142 35908 ft 408 kts 229°
2026-05-07 09:38 48.78096 60.69529 35910 ft 408 kts 229°
2026-05-07 09:39 48.74438 60.62927 35912 ft 408 kts 229°
2026-05-07 09:39 48.70797 60.56367 35910 ft 408 kts 229°
2026-05-07 09:40 48.67123 60.49769 35911 ft 408 kts 229°
2026-05-07 09:40 48.63475 60.43239 35908 ft 408 kts 228°
2026-05-07 09:41 48.59804 60.36677 35908 ft 408 kts 229°
2026-05-07 09:41 48.56130 60.30139 35905 ft 408 kts 228°
2026-05-07 09:42 48.52448 60.23610 35900 ft 408 kts 228°
2026-05-07 09:42 48.48770 60.17090 35898 ft 408 kts 228°
2026-05-07 09:43 48.45090 60.10567 35892 ft 408 kts 228°
2026-05-07 09:43 48.41413 60.04061 35893 ft 408 kts 228°
2026-05-07 09:44 48.37728 59.97569 35891 ft 408 kts 228°
2026-05-07 09:44 48.34043 59.91090 35887 ft 408 kts 228°
2026-05-07 09:45 48.30353 59.84624 35881 ft 408 kts 228°
2026-05-07 09:45 48.26655 59.78168 35880 ft 408 kts 228°
2026-05-07 09:46 48.22976 59.71755 35885 ft 408 kts 228°
2026-05-07 09:46 48.19272 59.65307 35873 ft 408 kts 228°
2026-05-07 09:47 48.15554 59.58858 35888 ft 409 kts 228°
2026-05-07 09:47 48.11831 59.52417 35883 ft 409 kts 227°
2026-05-07 09:48 48.08100 59.45975 35874 ft 410 kts 228°
2026-05-07 09:48 48.04370 59.39533 35886 ft 410 kts 227°
2026-05-07 09:49 48.00633 59.33104 35884 ft 410 kts 227°
2026-05-07 09:49 47.97513 59.27766 35881 ft 410 kts 227°
2026-05-07 09:50 47.93759 59.21353 35889 ft 411 kts 227°
2026-05-07 09:50 47.90002 59.14935 35891 ft 411 kts 227°
2026-05-07 09:51 47.86238 59.08523 35893 ft 411 kts 227°
2026-05-07 09:51 47.82465 59.02118 35894 ft 411 kts 227°
2026-05-07 09:52 47.78685 58.95719 35904 ft 412 kts 227°
2026-05-07 09:52 47.74911 58.89324 35899 ft 412 kts 227°
2026-05-07 09:53 47.71122 58.82923 35904 ft 412 kts 227°
2026-05-07 09:53 47.67330 58.76550 35911 ft 412 kts 227°
2026-05-07 09:54 47.63524 58.70179 35911 ft 413 kts 227°
2026-05-07 09:54 47.59717 58.63804 35910 ft 413 kts 227°
2026-05-07 09:55 47.55909 58.57440 35919 ft 413 kts 227°
2026-05-07 09:55 47.52093 58.51073 35917 ft 413 kts 227°
2026-05-07 09:56 47.48277 58.44717 35919 ft 413 kts 227°
2026-05-07 09:56 47.44448 58.38372 35926 ft 413 kts 227°
2026-05-07 09:57 47.40615 58.32034 35923 ft 414 kts 227°
2026-05-07 09:57 47.36786 58.25702 35925 ft 414 kts 227°
2026-05-07 09:58 47.32947 58.19391 35934 ft 413 kts 227°
2026-05-07 09:58 47.29105 58.13085 35931 ft 413 kts 227°
2026-05-07 09:59 47.25224 58.06832 35934 ft 413 kts 226°
2026-05-07 09:59 47.21319 58.00627 35931 ft 413 kts 226°
2026-05-07 10:00 47.17421 57.94429 35935 ft 413 kts 226°
2026-05-07 10:00 47.13517 57.88234 35935 ft 413 kts 226°
2026-05-07 10:01 47.09640 57.82077 35938 ft 413 kts 226°
2026-05-07 10:01 47.05744 57.75891 35936 ft 413 kts 226°
2026-05-07 10:02 47.01838 57.69715 35940 ft 413 kts 226°
2026-05-07 10:02 46.97932 57.63555 35940 ft 413 kts 226°
2026-05-07 10:03 46.94017 57.57399 35937 ft 413 kts 226°
2026-05-07 10:03 46.90097 57.51258 35937 ft 413 kts 226°
2026-05-07 10:04 46.86173 57.45126 35939 ft 413 kts 226°
2026-05-07 10:04 46.82248 57.38993 35938 ft 413 kts 226°
2026-05-07 10:05 46.78325 57.32873 35938 ft 412 kts 226°
2026-05-07 10:05 46.74406 57.26778 35920 ft 411 kts 226°
2026-05-07 10:06 46.70496 57.20697 35920 ft 411 kts 226°
2026-05-07 10:06 46.66574 57.14634 35917 ft 411 kts 226°
2026-05-07 10:07 46.62644 57.08586 35919 ft 411 kts 226°
2026-05-07 10:07 46.58716 57.02540 35918 ft 411 kts 226°
2026-05-07 10:08 46.54789 56.96489 35918 ft 412 kts 226°
2026-05-07 10:08 46.50853 56.90451 35927 ft 412 kts 226°
2026-05-07 10:09 46.47240 56.84032 35923 ft 412 kts 238°
2026-05-07 10:09 46.44319 56.76868 35930 ft 413 kts 238°
2026-05-07 10:10 46.41398 56.69775 35927 ft 412 kts 238°
2026-05-07 10:10 46.38432 56.62603 35935 ft 413 kts 238°
2026-05-07 10:11 46.35476 56.55480 35932 ft 413 kts 237°
2026-05-07 10:11 46.32516 56.48363 35938 ft 413 kts 237°
2026-05-07 10:12 46.29566 56.41292 35940 ft 413 kts 237°
2026-05-07 10:12 46.26595 56.34187 35945 ft 413 kts 237°
2026-05-07 10:13 46.23626 56.27080 35943 ft 413 kts 237°
2026-05-07 10:13 46.20649 56.19983 35937 ft 413 kts 237°
2026-05-07 10:14 46.17667 56.12895 35940 ft 413 kts 237°
2026-05-07 10:14 46.14680 56.05813 35945 ft 413 kts 237°
2026-05-07 10:15 46.11689 55.98743 35942 ft 413 kts 237°
2026-05-07 10:15 46.08701 55.91680 35939 ft 413 kts 237°
2026-05-07 10:16 46.05702 55.84633 35937 ft 412 kts 237°
2026-05-07 10:16 46.02702 55.77601 35944 ft 413 kts 237°
2026-05-07 10:17 45.99698 55.70560 35944 ft 413 kts 237°
2026-05-07 10:17 45.96689 55.63528 35949 ft 413 kts 237°
2026-05-07 10:18 45.93672 55.56514 35949 ft 412 kts 237°
2026-05-07 10:18 45.90653 55.49510 35952 ft 412 kts 237°
2026-05-07 10:19 45.87657 55.42557 35951 ft 412 kts 237°
2026-05-07 10:19 45.84636 55.35558 35952 ft 412 kts 237°
2026-05-07 10:20 45.81609 55.28577 35954 ft 412 kts 237°
2026-05-07 10:20 45.78574 55.21605 35955 ft 412 kts 236°
2026-05-07 10:21 45.75538 55.14638 35957 ft 412 kts 236°
2026-05-07 10:21 45.72500 55.07678 35957 ft 412 kts 236°
2026-05-07 10:22 45.69458 55.00725 35961 ft 412 kts 236°
2026-05-07 10:22 45.66407 54.93780 35959 ft 412 kts 236°
2026-05-07 10:23 45.63352 54.86844 35961 ft 412 kts 236°
2026-05-07 10:23 45.60313 54.79967 35958 ft 412 kts 236°
2026-05-07 10:24 45.57252 54.73051 35959 ft 412 kts 236°
2026-05-07 10:24 45.54186 54.66132 35964 ft 412 kts 236°
2026-05-07 10:25 45.51115 54.59227 35956 ft 412 kts 236°
2026-05-07 10:25 45.48040 54.52326 35962 ft 412 kts 236°
2026-05-07 10:26 45.44960 54.45435 35966 ft 412 kts 236°
2026-05-07 10:26 45.41866 54.38554 35965 ft 413 kts 236°
2026-05-07 10:27 45.38770 54.31686 35967 ft 413 kts 236°
2026-05-07 10:27 45.35674 54.24800 35967 ft 413 kts 236°
2026-05-07 10:28 45.32574 54.17935 35964 ft 413 kts 236°
2026-05-07 10:28 45.29460 54.11067 35964 ft 413 kts 236°
2026-05-07 10:29 45.26347 54.04207 35962 ft 413 kts 236°
2026-05-07 10:29 45.23227 53.97357 35967 ft 413 kts 236°
2026-05-07 10:30 45.18541 53.87090 35965 ft 413 kts 236°
2026-05-07 10:30 45.15418 53.80245 35966 ft 413 kts 236°
2026-05-07 10:31 45.12294 53.73408 35965 ft 414 kts 236°
2026-05-07 10:31 45.09162 53.66580 35967 ft 414 kts 236°
2026-05-07 10:32 45.06024 53.59756 35966 ft 414 kts 236°
2026-05-07 10:32 45.02884 53.52940 35970 ft 414 kts 236°
2026-05-07 10:33 44.99761 53.46160 35970 ft 414 kts 235°
2026-05-07 10:33 44.96589 53.39318 35972 ft 414 kts 235°
2026-05-07 10:34 44.93447 53.32562 35969 ft 414 kts 235°
2026-05-07 10:34 44.90282 53.25763 35967 ft 414 kts 235°
2026-05-07 10:35 44.87114 53.18953 35964 ft 414 kts 235°
2026-05-07 10:35 44.83960 53.12202 35969 ft 414 kts 235°
2026-05-07 10:36 44.81310 53.06560 35968 ft 415 kts 235°
2026-05-07 10:36 44.78111 52.99768 35976 ft 415 kts 235°
2026-05-07 10:37 44.74916 52.92997 35979 ft 415 kts 235°
2026-05-07 10:37 44.71742 52.86262 35981 ft 415 kts 235°
2026-05-07 10:38 44.68546 52.79492 35983 ft 415 kts 234°
2026-05-07 10:38 44.65340 52.72740 35982 ft 415 kts 234°
2026-05-07 10:39 44.62145 52.66030 35989 ft 415 kts 234°
2026-05-07 10:39 44.58933 52.59300 35986 ft 415 kts 234°
2026-05-07 10:40 44.55735 52.52610 35988 ft 414 kts 234°
2026-05-07 10:40 44.52504 52.45880 35994 ft 414 kts 234°
2026-05-07 10:41 44.49282 52.39176 35993 ft 414 kts 234°
2026-05-07 10:41 44.46076 52.32520 35999 ft 414 kts 234°
2026-05-07 10:42 44.42845 52.25812 36003 ft 414 kts 234°
2026-05-07 10:42 44.39626 52.19156 36007 ft 414 kts 234°
2026-05-07 10:43 44.36400 52.12454 36003 ft 414 kts 235°
2026-05-07 10:43 44.33309 52.05692 36012 ft 415 kts 236°
2026-05-07 10:44 44.30233 51.98858 36011 ft 415 kts 236°
2026-05-07 10:44 44.27132 51.92049 36017 ft 414 kts 236°
2026-05-07 10:45 44.24011 51.85275 36016 ft 414 kts 235°
2026-05-07 10:45 44.20898 51.78540 36023 ft 414 kts 235°
2026-05-07 10:46 44.17767 51.71767 36025 ft 414 kts 235°
2026-05-07 10:46 44.14661 51.65055 36028 ft 414 kts 235°
2026-05-07 10:47 44.11532 51.58302 36029 ft 414 kts 235°
2026-05-07 10:47 44.08415 51.51593 36034 ft 414 kts 235°
2026-05-07 10:48 44.05276 51.44862 36036 ft 414 kts 235°
2026-05-07 10:48 44.02129 51.38143 36042 ft 415 kts 235°
2026-05-07 10:49 43.98982 51.31431 36045 ft 415 kts 235°
2026-05-07 10:49 43.95836 51.24720 36051 ft 415 kts 235°
2026-05-07 10:50 43.92684 51.18012 36050 ft 415 kts 235°
2026-05-07 10:50 43.89525 51.11320 36050 ft 415 kts 234°
2026-05-07 10:51 43.86611 51.04404 36052 ft 418 kts 245°
2026-05-07 10:51 43.84425 50.96931 36052 ft 419 kts 245°
2026-05-07 10:52 43.82210 50.89472 36052 ft 419 kts 244°
2026-05-07 10:52 43.79983 50.82006 36053 ft 420 kts 244°
2026-05-07 10:53 43.77753 50.74543 36050 ft 420 kts 244°
2026-05-07 10:53 43.75519 50.67074 36052 ft 421 kts 244°
2026-05-07 10:54 43.73280 50.59592 36051 ft 421 kts 244°
2026-05-07 10:54 43.71034 50.52109 36051 ft 421 kts 244°
2026-05-07 10:55 43.68779 50.44632 36053 ft 422 kts 244°
2026-05-07 10:55 43.66545 50.37268 36030 ft 412 kts 246°
2026-05-07 10:56 43.64335 50.29986 36035 ft 410 kts 246°
2026-05-07 10:56 43.62135 50.22721 36037 ft 410 kts 246°
2026-05-07 10:57 43.59927 50.15465 36036 ft 410 kts 246°
2026-05-07 10:57 43.57703 50.08225 36047 ft 410 kts 246°
2026-05-07 10:58 43.55490 50.01019 36051 ft 411 kts 246°
2026-05-07 10:58 43.53258 49.93757 36063 ft 411 kts 246°
2026-05-07 10:59 43.51023 49.86499 36069 ft 412 kts 246°
2026-05-07 10:59 43.48778 49.79240 36070 ft 412 kts 245°
2026-05-07 11:00 43.46524 49.71972 36069 ft 413 kts 245°
2026-05-07 11:00 43.44264 49.64717 36070 ft 413 kts 245°
2026-05-07 11:01 43.41996 49.57451 36073 ft 413 kts 245°
2026-05-07 11:01 43.40114 49.49995 36068 ft 416 kts 258°
2026-05-07 11:02 43.39991 49.42010 36068 ft 421 kts 270°
2026-05-07 11:02 43.40332 49.33975 36071 ft 421 kts 270°
2026-05-07 11:03 43.40661 49.25925 36070 ft 422 kts 270°
2026-05-07 11:03 43.40988 49.17870 36068 ft 422 kts 270°
2026-05-07 11:04 43.41299 49.09794 36074 ft 423 kts 269°
2026-05-07 11:04 43.41599 49.01711 36071 ft 423 kts 270°
2026-05-07 11:05 43.41906 48.93617 36065 ft 424 kts 270°
2026-05-07 11:05 43.42209 48.85511 36068 ft 425 kts 269°
2026-05-07 11:06 43.42497 48.77396 36067 ft 425 kts 269°
2026-05-07 11:06 43.42784 48.69263 36066 ft 426 kts 269°
2026-05-07 11:07 43.43062 48.61119 36063 ft 427 kts 269°
2026-05-07 11:07 43.43336 48.52966 36063 ft 427 kts 269°
2026-05-07 11:08 43.43604 48.44794 36066 ft 428 kts 270°
2026-05-07 11:08 43.43882 48.36609 36064 ft 428 kts 270°
2026-05-07 11:09 43.44142 48.28470 36065 ft 429 kts 269°
2026-05-07 11:09 43.44392 48.20274 36061 ft 429 kts 269°
2026-05-07 11:10 43.44647 48.12064 36065 ft 430 kts 269°
2026-05-07 11:10 43.44888 48.03835 36064 ft 430 kts 269°
2026-05-07 11:11 43.45120 47.95596 36063 ft 431 kts 269°
2026-05-07 11:11 43.45350 47.87355 36063 ft 431 kts 269°
2026-05-07 11:12 43.45581 47.79104 36063 ft 432 kts 269°
2026-05-07 11:12 43.45808 47.70869 35547 ft 430 kts 269°
2026-05-07 11:13 43.45914 47.66752 34858 ft 430 kts 269°
2026-05-07 11:13 43.46017 47.62655 34297 ft 428 kts 269°
2026-05-07 11:13 43.46119 47.58570 34095 ft 427 kts 269°
2026-05-07 11:13 43.46219 47.54482 34033 ft 429 kts 269°
2026-05-07 11:14 43.46423 47.46231 34050 ft 432 kts 269°
2026-05-07 11:14 43.46623 47.37969 34052 ft 433 kts 269°
2026-05-07 11:15 43.46813 47.29686 34052 ft 433 kts 270°
2026-05-07 11:15 43.47002 47.21394 34054 ft 434 kts 269°
2026-05-07 11:16 43.47181 47.13087 34056 ft 434 kts 269°
2026-05-07 11:16 43.47348 47.04775 34059 ft 435 kts 269°
2026-05-07 11:17 43.47516 46.96451 34069 ft 435 kts 269°
2026-05-07 11:17 43.47687 46.88123 34065 ft 435 kts 269°
2026-05-07 11:18 43.47839 46.79798 34067 ft 435 kts 269°
2026-05-07 11:18 43.47987 46.71457 34067 ft 436 kts 269°
2026-05-07 11:19 43.48135 46.63115 34077 ft 436 kts 269°
2026-05-07 11:19 43.48274 46.54821 34073 ft 437 kts 269°
2026-05-07 11:20 43.48406 46.46451 34074 ft 437 kts 269°
2026-05-07 11:20 43.48529 46.38085 34082 ft 437 kts 269°
2026-05-07 11:21 43.48631 46.31067 34079 ft 438 kts 269°
2026-05-07 11:21 43.48749 46.22686 34075 ft 438 kts 269°
2026-05-07 11:22 43.48857 46.14292 34086 ft 438 kts 269°
2026-05-07 11:22 43.48960 46.05959 34098 ft 439 kts 269°
2026-05-07 11:23 43.49531 45.97582 34095 ft 440 kts 275°
2026-05-07 11:23 43.50238 45.89193 34103 ft 441 kts 275°
2026-05-07 11:24 43.50920 45.80788 34111 ft 441 kts 274°
2026-05-07 11:24 43.51585 45.72424 34113 ft 442 kts 275°
2026-05-07 11:25 43.52261 45.63994 34113 ft 442 kts 274°
2026-05-07 11:25 43.52941 45.55561 33857 ft 443 kts 274°
2026-05-07 11:26 43.53280 45.51346 33587 ft 443 kts 275°
2026-05-07 11:26 43.53618 45.47117 33316 ft 444 kts 274°
2026-05-07 11:26 43.53953 45.42883 33053 ft 445 kts 275°
2026-05-07 11:26 43.54286 45.38639 32790 ft 446 kts 275°
2026-05-07 11:27 43.54618 45.34388 32529 ft 448 kts 275°
2026-05-07 11:27 43.54951 45.30114 32272 ft 449 kts 275°
2026-05-07 11:27 43.55284 45.25826 32018 ft 451 kts 275°
2026-05-07 11:27 43.55616 45.21521 31770 ft 453 kts 275°
2026-05-07 11:28 43.55949 45.17195 31517 ft 455 kts 276°
2026-05-07 11:28 43.56283 45.12847 31273 ft 457 kts 276°
2026-05-07 11:28 43.56610 45.08537 31029 ft 459 kts 276°
2026-05-07 11:28 43.56942 45.04147 30785 ft 461 kts 276°
2026-05-07 11:29 43.57275 44.99733 30541 ft 464 kts 276°
2026-05-07 11:29 43.57608 44.95301 30259 ft 465 kts 276°
2026-05-07 11:29 43.57942 44.90844 29012 ft 471 kts 276°
2026-05-07 11:29 43.58274 44.86351 28274 ft 467 kts 276°
2026-05-07 11:30 43.58595 44.81940 27678 ft 460 kts 276°
2026-05-07 11:30 43.58913 44.77564 27014 ft 455 kts 276°
2026-05-07 11:30 43.59226 44.73246 26371 ft 451 kts 276°
2026-05-07 11:30 43.59534 44.68967 25732 ft 446 kts 276°
2026-05-07 11:31 43.59837 44.64732 25115 ft 441 kts 276°
2026-05-07 11:31 43.60137 44.60540 24499 ft 437 kts 276°
2026-05-07 11:31 43.60433 44.56386 23889 ft 432 kts 276°
2026-05-07 11:31 43.60724 44.52279 23231 ft 428 kts 275°
2026-05-07 11:32 43.61284 44.44253 22120 ft 412 kts 275°
2026-05-07 11:32 43.61557 44.40358 21604 ft 404 kts 275°
2026-05-07 11:32 43.61823 44.36544 21101 ft 395 kts 275°
2026-05-07 11:33 43.62082 44.32813 20630 ft 386 kts 275°
2026-05-07 11:33 43.62331 44.29164 20176 ft 378 kts 275°
2026-05-07 11:33 43.62572 44.25581 19737 ft 373 kts 275°
2026-05-07 11:33 43.62813 44.22022 19304 ft 371 kts 275°
2026-05-07 11:34 43.63057 44.18491 18867 ft 368 kts 276°
2026-05-07 11:34 43.63605 44.15067 18385 ft 365 kts 289°
2026-05-07 11:34 43.64665 44.11911 17878 ft 362 kts 301°
2026-05-07 11:34 43.66167 44.09147 17398 ft 360 kts 312°
2026-05-07 11:35 43.67856 44.06612 16932 ft 357 kts 312°
2026-05-07 11:35 43.69529 44.04096 16445 ft 355 kts 312°
2026-05-07 11:35 43.71190 44.01590 15962 ft 352 kts 312°
2026-05-07 11:35 43.72842 43.99097 15469 ft 350 kts 312°
2026-05-07 11:36 43.74481 43.96623 14970 ft 348 kts 312°
2026-05-07 11:36 43.76107 43.94166 14473 ft 345 kts 312°
2026-05-07 11:36 43.77728 43.91722 13977 ft 343 kts 313°
2026-05-07 11:36 43.79335 43.89294 13430 ft 341 kts 313°
2026-05-07 11:37 43.80929 43.86878 12921 ft 338 kts 313°
2026-05-07 11:37 43.82507 43.84485 12413 ft 335 kts 313°
2026-05-07 11:37 43.84049 43.82141 11913 ft 333 kts 313°
2026-05-07 11:37 43.85564 43.79744 11436 ft 329 kts 310°
2026-05-07 11:38 43.86987 43.77284 10958 ft 326 kts 308°
2026-05-07 11:38 43.88336 43.74830 10794 ft 312 kts 308°
2026-05-07 11:38 43.89608 43.72472 10662 ft 298 kts 307°
2026-05-07 11:38 43.90829 43.70215 10463 ft 288 kts 308°
2026-05-07 11:39 43.92031 43.68019 10238 ft 283 kts 308°
2026-05-07 11:39 43.93228 43.65858 10015 ft 281 kts 308°
2026-05-07 11:39 43.94423 43.63710 9897 ft 281 kts 308°
2026-05-07 11:39 43.95613 43.61565 9759 ft 280 kts 308°
2026-05-07 11:40 43.96806 43.59415 9423 ft 282 kts 309°
2026-05-07 11:40 43.98004 43.57257 8983 ft 281 kts 309°
2026-05-07 11:40 43.99196 43.55114 8588 ft 278 kts 308°
2026-05-07 11:40 44.00370 43.53001 8042 ft 275 kts 308°
2026-05-07 11:41 44.01533 43.50905 7479 ft 272 kts 308°
2026-05-07 11:41 44.02683 43.48830 6907 ft 270 kts 308°
2026-05-07 11:41 44.03821 43.46776 6359 ft 267 kts 308°
2026-05-07 11:41 44.04946 43.44736 5753 ft 265 kts 308°
2026-05-07 11:42 44.06055 43.42724 5250 ft 259 kts 308°
2026-05-07 11:42 44.07107 43.40814 5179 ft 238 kts 308°
2026-05-07 11:42 44.08074 43.39055 5119 ft 224 kts 308°
2026-05-07 11:42 44.09015 43.37344 5066 ft 217 kts 308°
2026-05-07 11:43 44.09905 43.35727 4965 ft 206 kts 307°
2026-05-07 11:43 44.10770 43.34158 4871 ft 204 kts 307°
2026-05-07 11:43 44.11622 43.32611 4779 ft 204 kts 308°
2026-05-07 11:43 44.12410 43.30971 4507 ft 203 kts 302°
2026-05-07 11:44 44.13130 43.29331 4233 ft 196 kts 302°
2026-05-07 11:44 44.13842 43.27752 3963 ft 188 kts 304°
2026-05-07 11:44 44.14527 43.26243 3719 ft 180 kts 302°
2026-05-07 11:44 44.15175 43.24819 3502 ft 169 kts 303°
2026-05-07 11:45 44.15779 43.23494 3277 ft 157 kts 303°
2026-05-07 11:45 44.16353 43.22233 3071 ft 152 kts 304°
2026-05-07 11:45 44.16909 43.21012 2872 ft 144 kts 304°
2026-05-07 11:45 44.17431 43.19865 2688 ft 138 kts 304°
2026-05-07 11:46 44.17937 43.18752 2504 ft 135 kts 303°
2026-05-07 11:46 44.18444 43.17639 2314 ft 137 kts 303°
2026-05-07 11:46 44.18953 43.16519 2124 ft 136 kts 302°
2026-05-07 11:46 44.19459 43.15406 1928 ft 137 kts 302°
2026-05-07 11:47 44.19968 43.14284 1747 ft 136 kts 301°
2026-05-07 11:47 44.20481 43.13152 1558 ft 139 kts 300°
2026-05-07 11:47 44.21003 43.12003 1405 ft 140 kts 300°
2026-05-07 11:47 44.21511 43.10868 1191 ft 138 kts 301°
2026-05-07 11:48 44.22022 43.09750 1055 ft 132 kts 303°
2026-05-07 11:48 44.22431 43.08849 1049 ft 84 kts 302°
2026-05-07 11:48 44.22652 43.08364 1049 ft 38 kts 302°
2026-05-07 11:48 44.22747 43.08153 1048 ft 18 kts 302°
2026-05-07 11:49 44.22811 43.08012 1047 ft 17 kts 303°
2026-05-07 11:49 44.22872 43.07880 1048 ft 15 kts 302°
2026-05-07 11:49 44.22926 43.07762 1049 ft 14 kts 302°
2026-05-07 11:49 44.22972 43.07648 1048 ft 13 kts 295°
2026-05-07 11:50 44.23003 43.07537 1049 ft 11 kts 294°
2026-05-07 11:50 44.23049 43.07506 1049 ft 3 kts 54°
2026-05-07 11:50 44.23038 43.07536 1049 ft 5 kts 129°
2026-05-07 11:50 44.23007 43.07584 1049 ft 9 kts 129°
2026-05-07 11:51 44.22964 43.07675 1048 ft 13 kts 122°
2026-05-07 11:51 44.22907 43.07801 1049 ft 17 kts 122°
2026-05-07 11:51 44.22834 43.07963 1047 ft 22 kts 125°
2026-05-07 11:51 44.22741 43.08158 1048 ft 26 kts 121°
2026-05-07 11:52 44.22642 43.08386 1049 ft 27 kts 121°
2026-05-07 11:52 44.22548 43.08590 1049 ft 17 kts 122°
2026-05-07 11:52 44.22486 43.08704 1050 ft 14 kts 133°
2026-05-07 11:52 44.22415 43.08791 1049 ft 13 kts 143°
2026-05-07 11:53 44.22338 43.08859 1049 ft 13 kts 150°
2026-05-07 11:53 44.22263 43.08912 1049 ft 12 kts 154°
2026-05-07 11:53 44.22192 43.08964 1047 ft 11 kts 152°
2026-05-07 11:53 44.22124 43.09014 1047 ft 10 kts 152°
2026-05-07 11:54 44.22065 43.09056 1048 ft 9 kts 152°
2026-05-07 11:54 44.22017 43.09092 1049 ft 7 kts 152°
2026-05-07 11:54 44.21976 43.09122 1049 ft 6 kts 156°
2026-05-07 11:54 44.21936 43.09121 1049 ft 6 kts 201°
2026-05-07 11:55 44.21881 43.09078 1050 ft 8 kts 211°
2026-05-07 11:55 44.21837 43.09055 1050 ft 6 kts 191°
2026-05-07 11:55 44.21803 43.09036 1050 ft 5 kts 209°
2026-05-07 11:55 44.21780 43.09015 1050 ft 3 kts 213°
2026-05-07 11:56 44.21776 43.09011 1050 ft 0 kts 213°